Terminal Aerodrome Forecast
Issued by NWS Paducah, KY

Home | Current Version | Previous Version | Text Only | Print | Product List | Glossary On
Versions: 1 2 3 4 5 6 7 8 9 10 11 12 13 14 15 16 17 18 19 20 21 22
000
FTUS43 KPAH 260700 AAA
TAFPAH
TAF AMD
KPAH 260748Z 2608/2706 33015G23KT P6SM OVC015
     FM261200 32008KT P6SM BKN020
     FM262000 21006KT P6SM SCT030=

USA.gov is the U.S. government's official web portal to all federal, state and local government web resources and services.